| time (UTC) | temp F | wind direction | speed knots | gust knots | rain 1hr in | rain 24hr in | rain mn in | humidity % | barometer mb |
| 20260504202533 | 69 | 304 | 4.3 | 5.2 | 0.00 | 0.00 | 0.00 | 43 | 1004.7 |
| 20260504202031 | 69 | 271 | 3.5 | 6.1 | 0.00 | 0.00 | 0.00 | 41 | 1004.9 |
| 20260504201527 | 69 | 79 | 1.7 | 1.7 | 0.00 | 0.00 | 0.00 | 43 | 1005.0 |
| 20260504201026 | 69 | 234 | 7.8 | 8.7 | 0.00 | 0.00 | 0.00 | 42 | 1005.1 |
| 20260504200521 | 70 | 169 | 1.7 | 1.7 | 0.00 | 0.00 | 0.00 | 43 | 1005.3 |
| 20260504200019 | 70 | 190 | 3.5 | 3.5 | 0.00 | 0.00 | 0.00 | 41 | 1005.3 |
| 20260504195515 | 68 | 268 | 0.9 | 0.9 | 0.00 | 0.00 | 0.00 | 45 | 1005.3 |
| 20260504195011 | 68 | 274 | 5.2 | 6.1 | 0.00 | 0.00 | 0.00 | 43 | 1005.4 |
| 20260504194508 | 68 | 200 | 2.6 | 2.6 | 0.00 | 0.00 | 0.00 | 43 | 1005.3 |
| 20260504194003 | 67 | 193 | 5.2 | 6.1 | 0.00 | 0.00 | 0.00 | 43 | 1005.3 |
| 20260504193500 | 67 | 223 | 2.6 | 3.5 | 0.00 | 0.00 | 0.00 | 44 | 1005.6 |
| 20260504192959 | 67 | 192 | 2.6 | 2.6 | 0.00 | 0.00 | 0.00 | 44 | 1005.4 |
| 20260504192456 | 68 | 165 | 5.2 | 7.0 | 0.00 | 0.00 | 0.00 | 43 | 1005.6 |
| 20260504191955 | 68 | 265 | 4.3 | 6.1 | 0.00 | 0.00 | 0.00 | 43 | 1005.6 |
| 20260504191452 | 67 | 245 | 3.5 | 5.2 | 0.00 | 0.00 | 0.00 | 43 | 1005.6 |
| 20260504190947 | 67 | 159 | 3.5 | 6.1 | 0.00 | 0.00 | 0.00 | 43 | 1005.8 |
| 20260504190444 | 68 | 272 | 5.2 | 6.1 | 0.00 | 0.00 | 0.00 | 42 | 1005.9 |
| 20260504185940 | 68 | 275 | 6.1 | 7.0 | 0.00 | 0.00 | 0.00 | 42 | 1005.7 |
| 20260504185438 | 67 | 128 | 1.7 | 1.7 | 0.00 | 0.00 | 0.00 | 47 | 1005.7 |
| 20260504184934 | 66 | 165 | 6.1 | 11.3 | 0.00 | 0.00 | 0.00 | 44 | 1005.8 |
| 20260504184429 | 67 | 332 | 3.5 | 6.1 | 0.00 | 0.00 | 0.00 | 45 | 1006.3 |
| 20260504183925 | 67 | 166 | 2.6 | 6.1 | 0.00 | 0.00 | 0.00 | 44 | 1006.3 |
| 20260504183423 | 67 | 306 | 1.7 | 2.6 | 0.00 | 0.00 | 0.00 | 45 | 1005.9 |
| 20260504182921 | 67 | 218 | 3.5 | 6.1 | 0.00 | 0.00 | 0.00 | 44 | 1006.0 |
| 20260504182417 | 66 | 99 | 1.7 | 1.7 | 0.00 | 0.00 | 0.00 | 44 | 1005.6 |
| 20260504181914 | 66 | 143 | 1.7 | 2.6 | 0.00 | 0.00 | 0.00 | 46 | 1006.4 |
| 20260504181412 | 66 | 182 | 7.0 | 8.7 | 0.00 | 0.00 | 0.00 | 43 | 1006.4 |
| 20260504180910 | 66 | 271 | 2.6 | 5.2 | 0.00 | 0.00 | 0.00 | 44 | 1006.4 |
| 20260504180409 | 65 | 274 | 4.3 | 6.1 | 0.00 | 0.00 | 0.00 | 44 | 1006.6 |
| 20260504175907 | 67 | 146 | 5.2 | 7.0 | 0.00 | 0.00 | 0.00 | 42 | 1006.6 |
| 20260504175403 | 65 | 277 | 0.9 | 1.7 | 0.00 | 0.00 | 0.00 | 49 | 1006.4 |
| 20260504174901 | 66 | 194 | 2.6 | 3.5 | 0.00 | 0.00 | 0.00 | 44 | 1006.6 |
| 20260504174358 | 66 | 299 | 0.9 | 1.7 | 0.00 | 0.00 | 0.00 | 46 | 1006.3 |
| 20260504173855 | 65 | 311 | 2.6 | 2.6 | 0.00 | 0.00 | 0.00 | 44 | 1006.4 |
| 20260504173352 | 65 | 108 | 2.6 | 3.5 | 0.00 | 0.00 | 0.00 | 46 | 1006.6 |
| 20260504172849 | 65 | 153 | 6.1 | 8.7 | 0.00 | 0.00 | 0.00 | 44 | 1006.7 |
| 20260504172346 | 65 | 220 | 3.5 | 7.0 | 0.00 | 0.00 | 0.00 | 45 | 1006.8 |
| 20260504171841 | 65 | 174 | 1.7 | 3.5 | 0.00 | 0.00 | 0.00 | 44 | 1007.0 |
| 20260504171339 | 65 | 198 | 7.0 | 9.6 | 0.00 | 0.00 | 0.00 | 44 | 1006.6 |
| 20260504170836 | 64 | 157 | 3.5 | 5.2 | 0.00 | 0.00 | 0.00 | 47 | 1006.9 |
| 20260504170332 | 65 | 246 | 4.3 | 6.1 | 0.00 | 0.00 | 0.00 | 44 | 1007.0 |
| 20260504160251 | 62 | 157 | 6.1 | 7.0 | 0.00 | 0.00 | 0.00 | 46 | 1007.9 |
| 20260504150716 | 63 | 288 | 13.0 | 16.5 | 0.00 | 0.00 | 0.00 | 42 | 1008.2 |
| 20260504150213 | 62 | 152 | 3.5 | 5.2 | 0.00 | 0.00 | 0.00 | 43 | 1008.6 |
| 20260504141142 | 59 | 275 | 4.3 | 6.1 | 0.00 | 0.00 | 0.00 | 42 | 1008.2 |
| 20260504140639 | 60 | 250 | 3.5 | 6.1 | 0.00 | 0.00 | 0.00 | 41 | 1008.3 |
| 20260504140134 | 58 | 157 | 3.5 | 3.5 | 0.00 | 0.00 | 0.00 | 44 | 1008.3 |
| 20260504130603 | 53 | 295 | 0.0 | 0.9 | 0.00 | 0.00 | 0.00 | 51 | 1009.1 |
| 20260504110451 | 42 | 359 | 0.0 | 0.0 | 0.00 | 0.00 | 0.00 | 79 | 1009.1 |
| 20260504100407 | 32 | 356 | 0.0 | 0.0 | 0.00 | 0.00 | 0.00 | 95 | 1009.2 |
| 20260504081800 | 33 | 355 | 0.0 | 0.0 | 0.00 | 0.00 | 0.00 | 93 | 1009.4 |
| 20260504081256 | 33 | 355 | 0.0 | 0.0 | 0.00 | 0.00 | 0.00 | 92 | 1009.5 |
| 20260504080753 | 34 | 355 | 0.0 | 0.0 | 0.00 | 0.00 | 0.00 | 92 | 1009.3 |
| 20260504080250 | 33 | 354 | 0.0 | 0.0 | 0.00 | 0.00 | 0.00 | 92 | 1009.1 |
| 20260504070217 | 34 | 356 | 0.0 | 0.0 | 0.00 | 0.00 | 0.00 | 89 | 1009.3 |
| 20260504060138 | 35 | 332 | 0.0 | 0.0 | 0.00 | 0.00 | 0.00 | 89 | 1009.4 |
| 20260504050606 | 36 | 330 | 0.0 | 0.0 | 0.00 | 0.00 | 0.00 | 87 | 1009.2 |
| 20260504050103 | 36 | 335 | 0.0 | 0.0 | 0.00 | 0.00 | 0.00 | 87 | 1009.3 |
| 20260504045600 | 36 | 337 | 0.0 | 0.0 | 0.00 | 0.00 | 0.00 | 87 | 1009.5 |
| 20260504045055 | 36 | 337 | 0.0 | 0.0 | 0.00 | 0.00 | 0.00 | 87 | 1009.3 |
| 20260504044553 | 36 | 328 | 0.0 | 0.0 | 0.00 | 0.00 | 0.00 | 86 | 1009.4 |
| 20260504044049 | 36 | 328 | 0.0 | 0.0 | 0.00 | 0.00 | 0.00 | 86 | 1009.3 |
| 20260504043547 | 35 | 335 | 0.0 | 0.0 | 0.00 | 0.00 | 0.00 | 87 | 1009.4 |
| 20260504043044 | 35 | 334 | 0.0 | 0.0 | 0.00 | 0.00 | 0.00 | 87 | 1009.3 |
| 20260504042541 | 36 | 339 | 0.0 | 0.0 | 0.00 | 0.00 | 0.00 | 87 | 1009.6 |
| 20260504042038 | 36 | 339 | 0.0 | 0.0 | 0.00 | 0.00 | 0.00 | 86 | 1009.5 |
| 20260504041533 | 36 | 343 | 0.0 | 0.0 | 0.00 | 0.00 | 0.00 | 86 | 1009.5 |
| 20260504041030 | 36 | 325 | 0.0 | 0.0 | 0.00 | 0.00 | 0.00 | 85 | 1009.2 |
| 20260504040527 | 36 | 325 | 0.0 | 0.0 | 0.00 | 0.00 | 0.00 | 85 | 1009.3 |
| 20260504040024 | 37 | 325 | 0.0 | 0.0 | 0.00 | 0.00 | 0.00 | 85 | 1009.2 |
| 20260504035521 | 37 | 325 | 0.0 | 0.0 | 0.00 | 0.00 | 0.00 | 84 | 1009.3 |
| 20260504035017 | 37 | 325 | 0.0 | 0.0 | 0.00 | 0.00 | 0.00 | 83 | 1009.1 |
| 20260504034515 | 37 | 325 | 0.0 | 0.0 | 0.00 | 0.00 | 0.00 | 83 | 1009.0 |
| 20260504034012 | 37 | 325 | 0.0 | 0.0 | 0.00 | 0.00 | 0.00 | 84 | 1009.0 |
| 20260504033510 | 37 | 325 | 0.0 | 0.0 | 0.00 | 0.00 | 0.00 | 84 | 1008.8 |
| 20260504033007 | 38 | 325 | 0.0 | 0.0 | 0.00 | 0.00 | 0.00 | 83 | 1008.9 |
| 20260504032503 | 38 | 325 | 0.0 | 0.0 | 0.00 | 0.00 | 0.00 | 83 | 1009.0 |
| 20260504032000 | 38 | 325 | 0.0 | 0.0 | 0.00 | 0.00 | 0.00 | 82 | 1009.0 |
| 20260504031456 | 38 | 325 | 0.0 | 0.0 | 0.00 | 0.00 | 0.00 | 82 | 1008.7 |
| 20260504030954 | 39 | 325 | 0.0 | 0.0 | 0.00 | 0.00 | 0.00 | 80 | 1009.0 |
| 20260504030451 | 38 | 325 | 0.0 | 0.0 | 0.00 | 0.00 | 0.00 | 80 | 1008.7 |
| 20260504025946 | 38 | 325 | 0.0 | 0.0 | 0.00 | 0.00 | 0.00 | 81 | 1008.7 |
| 20260504025444 | 39 | 325 | 0.0 | 0.0 | 0.00 | 0.00 | 0.00 | 80 | 1008.9 |
| 20260504024941 | 39 | 325 | 0.0 | 0.0 | 0.00 | 0.00 | 0.00 | 79 | 1008.9 |
| 20260504024438 | 39 | 325 | 0.0 | 0.0 | 0.00 | 0.00 | 0.00 | 78 | 1008.9 |
| 20260504023935 | 40 | 325 | 0.0 | 0.0 | 0.00 | 0.00 | 0.00 | 77 | 1009.0 |
| 20260504023431 | 40 | 325 | 0.0 | 0.0 | 0.00 | 0.00 | 0.00 | 76 | 1008.9 |
| 20260504022927 | 40 | 325 | 0.0 | 0.0 | 0.00 | 0.00 | 0.00 | 77 | 1008.8 |
| 20260504022423 | 41 | 325 | 0.0 | 0.0 | 0.00 | 0.00 | 0.00 | 76 | 1008.9 |
| 20260504021920 | 41 | 327 | 0.0 | 0.0 | 0.00 | 0.00 | 0.00 | 75 | 1008.7 |
| 20260504021417 | 41 | 321 | 0.0 | 0.0 | 0.00 | 0.00 | 0.00 | 75 | 1008.8 |
| 20260504020915 | 41 | 315 | 0.0 | 0.0 | 0.00 | 0.00 | 0.00 | 75 | 1009.0 |
| 20260504020411 | 41 | 335 | 0.0 | 0.0 | 0.00 | 0.00 | 0.00 | 74 | 1008.9 |
| 20260504015908 | 41 | 337 | 0.0 | 0.0 | 0.00 | 0.00 | 0.00 | 73 | 1009.0 |
| 20260504015404 | 41 | 334 | 0.0 | 0.0 | 0.00 | 0.00 | 0.00 | 74 | 1008.6 |
| 20260504014900 | 42 | 328 | 0.0 | 0.0 | 0.00 | 0.00 | 0.00 | 72 | 1009.0 |
| 20260504014356 | 42 | 324 | 0.0 | 0.0 | 0.00 | 0.00 | 0.00 | 72 | 1008.9 |
| 20260504013853 | 42 | 286 | 0.0 | 0.0 | 0.00 | 0.00 | 0.00 | 70 | 1008.9 |
| 20260504013351 | 43 | 322 | 0.0 | 0.0 | 0.00 | 0.00 | 0.00 | 69 | 1008.8 |
| 20260504012847 | 43 | 323 | 0.0 | 0.0 | 0.00 | 0.00 | 0.00 | 68 | 1008.7 |
| 20260504012345 | 43 | 322 | 0.0 | 0.0 | 0.00 | 0.00 | 0.00 | 67 | 1008.9 |
| 20260504011843 | 44 | 324 | 0.0 | 0.0 | 0.00 | 0.00 | 0.00 | 66 | 1008.8 |
| 20260504011339 | 44 | 322 | 0.0 | 0.0 | 0.00 | 0.00 | 0.00 | 64 | 1008.9 |
| 20260504010835 | 45 | 324 | 0.0 | 0.0 | 0.00 | 0.00 | 0.00 | 64 | 1008.7 |
| 20260504010331 | 45 | 312 | 0.0 | 0.0 | 0.00 | 0.00 | 0.00 | 62 | 1008.6 |
| 20260504005828 | 46 | 338 | 0.0 | 0.0 | 0.00 | 0.00 | 0.00 | 61 | 1008.4 |
| 20260504005324 | 47 | 317 | 0.0 | 0.0 | 0.00 | 0.00 | 0.00 | 59 | 1008.8 |
| 20260504004822 | 48 | 317 | 0.0 | 0.0 | 0.00 | 0.00 | 0.00 | 55 | 1008.4 |
| 20260504004320 | 49 | 303 | 0.0 | 0.0 | 0.00 | 0.00 | 0.00 | 53 | 1008.3 |
| 20260504003816 | 50 | 303 | 0.0 | 0.0 | 0.00 | 0.00 | 0.00 | 50 | 1008.4 |
| 20260504003313 | 51 | 291 | 0.9 | 0.9 | 0.00 | 0.00 | 0.00 | 48 | 1008.3 |
| 20260504002809 | 51 | 271 | 1.7 | 2.6 | 0.00 | 0.00 | 0.00 | 47 | 1008.2 |
| 20260504002306 | 51 | 320 | 0.0 | 0.0 | 0.00 | 0.00 | 0.00 | 48 | 1008.3 |
| 20260504001804 | 52 | 291 | 0.9 | 1.7 | 0.00 | 0.00 | 0.00 | 46 | 1008.3 |
| 20260504001301 | 52 | 275 | 1.7 | 1.7 | 0.00 | 0.00 | 0.00 | 45 | 1007.9 |
| 20260504000758 | 53 | 296 | 3.5 | 5.2 | 0.00 | 0.00 | 0.00 | 45 | 1007.7 |
| 20260504000254 | 53 | 210 | 5.2 | 7.8 | 0.00 | 0.00 | 0.00 | 44 | 1008.0 |
| 20260503235753 | 53 | 306 | 0.9 | 0.9 | 0.00 | 0.00 | 0.00 | 44 | 1008.0 |
| 20260503235250 | 53 | 218 | 2.6 | 3.5 | 0.00 | 0.00 | 0.00 | 43 | 1008.1 |
| 20260503234747 | 53 | 345 | 1.7 | 3.5 | 0.00 | 0.00 | 0.00 | 43 | 1007.9 |
| 20260503234245 | 54 | 295 | 1.7 | 2.6 | 0.00 | 0.00 | 0.00 | 43 | 1007.8 |
| 20260503233742 | 54 | 274 | 1.7 | 1.7 | 0.00 | 0.00 | 0.00 | 43 | 1007.8 |
| 20260503233237 | 54 | 325 | 4.3 | 6.1 | 0.00 | 0.00 | 0.00 | 42 | 1007.8 |
| 20260503232729 | 55 | 228 | 2.6 | 3.5 | 0.00 | 0.00 | 0.00 | 42 | 1007.8 |
| 20260503232226 | 55 | 259 | 2.6 | 2.6 | 0.00 | 0.00 | 0.00 | 42 | 1007.8 |
| 20260503231725 | 55 | 229 | 4.3 | 6.1 | 0.00 | 0.00 | 0.00 | 40 | 1007.5 |
| 20260503231221 | 55 | 271 | 5.2 | 7.0 | 0.00 | 0.00 | 0.00 | 41 | 1007.8 |
| 20260503230717 | 55 | 297 | 2.6 | 3.5 | 0.00 | 0.00 | 0.00 | 41 | 1007.8 |
| 20260503230214 | 55 | 264 | 7.8 | 8.7 | 0.00 | 0.00 | 0.00 | 40 | 1007.5 |
| 20260503225712 | 55 | 279 | 4.3 | 6.1 | 0.00 | 0.00 | 0.00 | 40 | 1007.7 |
| 20260503225211 | 55 | 315 | 2.6 | 3.5 | 0.00 | 0.00 | 0.00 | 40 | 1007.6 |
| 20260503224709 | 55 | 270 | 2.6 | 2.6 | 0.00 | 0.00 | 0.00 | 41 | 1007.6 |
| 20260503224207 | 56 | 300 | 8.7 | 13.0 | 0.00 | 0.00 | 0.00 | 39 | 1007.4 |
| 20260503223704 | 56 | 217 | 2.6 | 3.5 | 0.00 | 0.00 | 0.00 | 39 | 1007.5 |
| 20260503223201 | 56 | 241 | 6.1 | 7.0 | 0.00 | 0.00 | 0.00 | 40 | 1007.4 |
| 20260503222658 | 57 | 219 | 9.6 | 13.9 | 0.00 | 0.00 | 0.00 | 38 | 1007.3 |
| 20260503222155 | 57 | 277 | 6.1 | 11.3 | 0.00 | 0.00 | 0.00 | 40 | 1007.6 |
| 20260503221654 | 56 | 271 | 3.5 | 3.5 | 0.00 | 0.00 | 0.00 | 39 | 1007.3 |
| 20260503221151 | 56 | 277 | 1.7 | 2.6 | 0.00 | 0.00 | 0.00 | 40 | 1007.5 |
| 20260503220647 | 55 | 253 | 4.3 | 7.0 | 0.00 | 0.00 | 0.00 | 40 | 1007.5 |
| 20260503220144 | 56 | 270 | 7.0 | 7.8 | 0.00 | 0.00 | 0.00 | 40 | 1007.5 |
| 20260503215642 | 56 | 276 | 3.5 | 3.5 | 0.00 | 0.00 | 0.00 | 40 | 1007.3 |
| 20260503215138 | 57 | 261 | 3.5 | 5.2 | 0.00 | 0.00 | 0.00 | 39 | 1007.5 |
| 20260503214637 | 56 | 290 | 4.3 | 6.1 | 0.00 | 0.00 | 0.00 | 40 | 1007.5 |
| 20260503214132 | 55 | 306 | 3.5 | 5.2 | 0.00 | 0.00 | 0.00 | 40 | 1007.7 |
| 20260503213626 | 56 | 272 | 1.7 | 1.7 | 0.00 | 0.00 | 0.00 | 40 | 1007.6 |
| 20260503213122 | 55 | 279 | 4.3 | 6.1 | 0.00 | 0.00 | 0.00 | 41 | 1007.3 |
| 20260503212619 | 55 | 274 | 3.5 | 3.5 | 0.00 | 0.00 | 0.00 | 40 | 1007.5 |
| 20260503212116 | 55 | 287 | 1.7 | 3.5 | 0.00 | 0.00 | 0.00 | 41 | 1007.4 |
| 20260503211609 | 55 | 308 | 6.1 | 9.6 | 0.00 | 0.00 | 0.00 | 40 | 1007.5 |
| 20260503211104 | 55 | 177 | 3.5 | 5.2 | 0.00 | 0.00 | 0.00 | 40 | 1007.3 |
| 20260503210601 | 55 | 298 | 4.3 | 6.1 | 0.00 | 0.00 | 0.00 | 39 | 1007.2 |
| 20260503210056 | 55 | 216 | 6.1 | 7.8 | 0.00 | 0.00 | 0.00 | 38 | 1007.2 |
| 20260503205553 | 55 | 341 | 7.8 | 11.3 | 0.00 | 0.00 | 0.00 | 39 | 1007.2 |
| 20260503205049 | 55 | 326 | 3.5 | 5.2 | 0.00 | 0.00 | 0.00 | 40 | 1007.2 |
| 20260503204547 | 54 | 301 | 4.3 | 6.1 | 0.00 | 0.00 | 0.00 | 40 | 1007.2 |
| 20260503204044 | 55 | 272 | 4.3 | 7.0 | 0.00 | 0.00 | 0.00 | 40 | 1007.1 |
| 20260503203541 | 56 | 294 | 4.3 | 6.1 | 0.00 | 0.00 | 0.00 | 39 | 1007.2 |
| 20260503203038 | 55 | 324 | 5.2 | 6.1 | 0.00 | 0.00 | 0.00 | 40 | 1007.3 |